When you browse on this site, cookies collect data to enhance your experience and personalize the content and advertising you see.
Visit our Privacy Policy to learn more. By continuing to use the site, you agree to this use of cookies and data.
  • In Switzerland
  • List of Countries
  • For 7 days
  • Water Temperature
  • Weather Map
  • Weather Widgets
  • user-avatar
    Login

    Hourly Weather Rottenburg

    Today, 31 May, Sunday

    Time Temperature Precipitation Wind Pressure Humidity
    00:00 +8°C° 0 mm 2 mps 729 mmHg 85%
    01:00 +8°C° 0 mm 1 mps 729 mmHg 84%
    02:00 +8°C° 0 mm 1 mps 729 mmHg 86%
    03:00 +8°C° 0 mm 1 mps 729 mmHg 88%
    04:00 +7°C° 0 mm 1 mps 729 mmHg 90%
    05:00 +9°C° 0 mm 1 mps 729 mmHg 85%
    06:00 +10°C° 0 mm 1 mps 729 mmHg 80%
    07:00 +11°C° 0 mm 1 mps 729 mmHg 74%
    08:00 +13°C° 0 mm 2 mps 729 mmHg 69%
    09:00 +14°C° 0 mm 2 mps 729 mmHg 63%
    10:00 +16°C° 0 mm 3 mps 729 mmHg 57%
    11:00 +16°C° 0 mm 3 mps 729 mmHg 55%
    12:00 +17°C° 0 mm 4 mps 729 mmHg 54%
    13:00 +18°C° 0 mm 4 mps 729 mmHg 52%
    14:00 +18°C° 0 mm 4 mps 729 mmHg 54%
    15:00 +18°C° 0 mm 4 mps 729 mmHg 55%
    16:00 +18°C° 0 mm 4 mps 729 mmHg 56%
    17:00 +17°C° 0 mm 3 mps 729 mmHg 61%
    18:00 +17°C° 0 mm 3 mps 729 mmHg 67%
    19:00 +16°C° 0 mm 3 mps 729 mmHg 72%
    20:00 +13°C° 0 mm 3 mps 730 mmHg 76%
    21:00 +12°C° 0 mm 3 mps 730 mmHg 81%
    22:00 +10°C° 0 mm 2 mps 730 mmHg 85%
    23:00 +10°C° 0 mm 2 mps 730 mmHg 86%

    Tomorrow, 1 June, Monday

    Time Temperature Precipitation Wind Pressure Humidity
    00:00 +9°C° 0 mm 2 mps 730 mmHg 87%
    01:00 +8°C° 0 mm 2 mps 730 mmHg 88%
    02:00 +8°C° 0 mm 2 mps 730 mmHg 89%
    03:00 +8°C° 0 mm 2 mps 729 mmHg 90%
    04:00 +7°C° 0 mm 2 mps 729 mmHg 91%
    05:00 +9°C° 0 mm 2 mps 729 mmHg 88%
    06:00 +10°C° 0 mm 3 mps 730 mmHg 84%
    07:00 +12°C° 0 mm 3 mps 730 mmHg 81%
    08:00 +14°C° 0 mm 3 mps 730 mmHg 76%
    09:00 +17°C° 0 mm 4 mps 730 mmHg 70%
    10:00 +19°C° 0 mm 4 mps 730 mmHg 65%
    11:00 +20°C° 0 mm 5 mps 730 mmHg 62%
    12:00 +21°C° 0 mm 5 mps 730 mmHg 59%
    13:00 +22°C° 0 mm 5 mps 729 mmHg 56%
    14:00 +22°C° 0 mm 5 mps 729 mmHg 57%
    15:00 +22°C° 0 mm 5 mps 729 mmHg 58%
    16:00 +22°C° 0 mm 4 mps 729 mmHg 58%
    17:00 +21°C° 0 mm 4 mps 729 mmHg 64%
    18:00 +20°C° 0 mm 3 mps 729 mmHg 69%
    19:00 +19°C° 0 mm 3 mps 728 mmHg 74%
    20:00 +17°C° 0 mm 2 mps 729 mmHg 78%
    21:00 +15°C° 0 mm 2 mps 729 mmHg 83%
    22:00 +13°C° 0 mm 2 mps 729 mmHg 87%
    23:00 +13°C° 0 mm 1 mps 729 mmHg 88%

    Day after tomorrow, 2 June, Tuesday

    Time Temperature Precipitation Wind Pressure Humidity
    00:00 +12°C° 0 mm 1 mps 729 mmHg 90%
    01:00 +12°C° 0 mm 1 mps 729 mmHg 91%
    02:00 +11°C° 0 mm 1 mps 729 mmHg 91%
    03:00 +11°C° 0 mm 1 mps 728 mmHg 92%
    04:00 +10°C° 0 mm 1 mps 728 mmHg 93%
    05:00 +12°C° 0 mm 1 mps 728 mmHg 89%
    06:00 +13°C° 0 mm 1 mps 728 mmHg 84%
    07:00 +15°C° 0 mm 2 mps 729 mmHg 80%
    08:00 +16°C° 0 mm 2 mps 728 mmHg 74%
    09:00 +18°C° 0 mm 3 mps 728 mmHg 67%
    10:00 +20°C° 0 mm 3 mps 728 mmHg 61%
    11:00 +21°C° 0 mm 4 mps 728 mmHg 59%
    12:00 +21°C° 0 mm 4 mps 728 mmHg 56%
    13:00 +22°C° 0 mm 4 mps 728 mmHg 54%
    14:00 +22°C° 0 mm 4 mps 727 mmHg 55%
    15:00 +22°C° 0 mm 4 mps 727 mmHg 55%
    16:00 +22°C° 0 mm 4 mps 726 mmHg 56%
    17:00 +21°C° 0 mm 3 mps 726 mmHg 61%
    18:00 +20°C° 0 mm 3 mps 725 mmHg 67%
    19:00 +19°C° 0 mm 2 mps 725 mmHg 72%
    20:00 +17°C° 0 mm 2 mps 725 mmHg 76%
    21:00 +15°C° 0 mm 1 mps 725 mmHg 80%
    22:00 +13°C° 0 mm 1 mps 725 mmHg 84%
    23:00 +13°C° 0 mm 1 mps 725 mmHg 85%

    3 June, Wednesday

    Time Temperature Precipitation Wind Pressure Humidity
    00:00 +12°C° 0 mm 1 mps 724 mmHg 86%
    01:00 +12°C° 0 mm 1 mps 724 mmHg 87%
    02:00 +11°C° 0 mm 1 mps 724 mmHg 88%
    03:00 +11°C° 0 mm 1 mps 724 mmHg 88%
    04:00 +11°C° 0 mm 1 mps 723 mmHg 89%
    05:00 +12°C° 0 mm 1 mps 723 mmHg 85%
    06:00 +14°C° 0 mm 1 mps 723 mmHg 80%
    07:00 +15°C° 0 mm 1 mps 723 mmHg 75%
    08:00 +18°C° 0 mm 1 mps 723 mmHg 69%
    09:00 +20°C° 0 mm 1 mps 723 mmHg 62%
    10:00 +22°C° 0 mm 1 mps 723 mmHg 56%
    11:00 +23°C° 0 mm 1 mps 722 mmHg 53%
    12:00 +24°C° 0 mm 1 mps 722 mmHg 49%
    13:00 +25°C° 0 mm 1 mps 722 mmHg 46%
    14:00 +25°C° 0 mm 1 mps 721 mmHg 46%
    15:00 +25°C° 0 mm 1 mps 721 mmHg 46%
    16:00 +25°C° 0 mm 1 mps 720 mmHg 47%
    17:00 +24°C° 0 mm 1 mps 720 mmHg 55%
    18:00 +23°C° 0 mm 1 mps 720 mmHg 63%
    19:00 +21°C° 0 mm 1 mps 720 mmHg 72%
    20:00 +20°C° 0 mm 1 mps 720 mmHg 74%
    21:00 +19°C° 0 mm 1 mps 720 mmHg 76%
    22:00 +16°C° 0 mm 1 mps 720 mmHg 79%
    23:00 +16°C° 0.1 mm 1 mps 720 mmHg 79%

    4 June, Thursday

    Time Temperature Precipitation Wind Pressure Humidity
    00:00 +16°C° 0.1 mm 2 mps 719 mmHg 80%
    01:00 +16°C° 0.1 mm 2 mps 719 mmHg 81%
    02:00 +16°C° 0.2 mm 2 mps 719 mmHg 84%
    03:00 +16°C° 0.2 mm 2 mps 719 mmHg 88%
    04:00 +15°C° 0.2 mm 2 mps 719 mmHg 91%
    05:00 +14°C° 0.7 mm 3 mps 719 mmHg 93%
    06:00 +14°C° 0.7 mm 4 mps 719 mmHg 94%
    07:00 +15°C° 0.7 mm 4 mps 719 mmHg 95%
    08:00 +15°C° 1.1 mm 4 mps 719 mmHg 95%
    09:00 +15°C° 1.1 mm 4 mps 719 mmHg 95%
    10:00 +15°C° 1.1 mm 4 mps 719 mmHg 95%
    11:00 +16°C° 2.3 mm 3 mps 719 mmHg 95%
    12:00 +15°C° 2.3 mm 2 mps 719 mmHg 95%
    13:00 +15°C° 2.3 mm 2 mps 719 mmHg 95%
    14:00 +17°C° 0.2 mm 2 mps 720 mmHg 88%
    15:00 +18°C° 0.2 mm 3 mps 720 mmHg 80%
    16:00 +20°C° 0.2 mm 4 mps 720 mmHg 73%
    17:00 +19°C° 0.2 mm 3 mps 720 mmHg 76%
    18:00 +18°C° 0.2 mm 3 mps 720 mmHg 79%
    19:00 +18°C° 0.2 mm 2 mps 720 mmHg 83%
    20:00 +16°C° 0 mm 2 mps 721 mmHg 86%
    21:00 +15°C° 0 mm 1 mps 721 mmHg 89%
    22:00 +14°C° 0 mm 1 mps 721 mmHg 92%
    23:00 +13°C° 0 mm 1 mps 721 mmHg 92%

    5 June, Friday

    Time Temperature Precipitation Wind Pressure Humidity
    00:00 +13°C° 0 mm 1 mps 721 mmHg 92%
    01:00 +12°C° 0 mm 0 mps 721 mmHg 92%
    02:00 +11°C° 0 mm 0 mps 721 mmHg 92%
    03:00 +11°C° 0 mm 0 mps 721 mmHg 92%
    04:00 +10°C° 0 mm 0 mps 721 mmHg 93%
    05:00 +12°C° 0 mm 0 mps 721 mmHg 90%
    06:00 +13°C° 0 mm 0 mps 721 mmHg 88%
    07:00 +15°C° 0 mm 0 mps 721 mmHg 85%
    08:00 +19°C° 0 mm 1 mps 721 mmHg 78%
    09:00 +21°C° 0 mm 1 mps 721 mmHg 70%
    10:00 +22°C° 0 mm 1 mps 721 mmHg 62%
    11:00 +23°C° 0 mm 1 mps 721 mmHg 59%
    12:00 +24°C° 0 mm 2 mps 721 mmHg 56%
    13:00 +25°C° 0 mm 2 mps 720 mmHg 53%
    14:00 +25°C° 0.1 mm 2 mps 720 mmHg 55%
    15:00 +25°C° 0.1 mm 2 mps 720 mmHg 56%
    16:00 +25°C° 0.1 mm 2 mps 719 mmHg 57%
    17:00 +24°C° 0.1 mm 2 mps 719 mmHg 64%
    18:00 +23°C° 0.1 mm 2 mps 719 mmHg 71%
    19:00 +21°C° 0.1 mm 2 mps 719 mmHg 78%
    20:00 +20°C° 0.1 mm 1 mps 720 mmHg 82%
    21:00 +18°C° 0.1 mm 1 mps 720 mmHg 85%
    22:00 +15°C° 0.1 mm 1 mps 720 mmHg 88%
    23:00 +15°C° 0 mm 1 mps 720 mmHg 89%
    Show more